Powrót do katalogu

STARLINK-3913

AktywnyŁącznośćVLEO
NORAD 52485·PAYLOAD·🇺🇸 United States

Wystrzelony May 6, 2022 z Cape Canaveral Space Force Station

Loading…

Następne Przeloty (najbliższe 24 godziny)

TLE

ŚwieżeSource: CelesTrak SupGP

Epoka: Sep 14, 2026, 21:41 UTC

1 52485C 22049AL  26257.90395833  .00045716  00000+0  13875-2 0  2578
2 52485  53.1580 269.9072 0001264  85.7004   9.5747 15.33519602    18

Śledź STARLINK-3913 w czasie rzeczywistym z AllMySat

Download on the App Store